Regional Weather Roundup
Issued by NWS Cleveland, OH

Home | Current Version | Previous Version | Text Only | Print | Product List | Glossary On
Versions: 1 2 3 4 5 6 7 8 9 10 11 12 13 14 15 16 17 18 19 20 21 22 23 24 25 26 27 28 29 30 31 32 33 34 35 36 37 38 39 40 41 42 43 44 45 46 47 48 49 50
000
ASUS41 KCLE 260410
RWRCLE
OHIO REGIONAL WEATHER ROUNDUP
NATIONAL WEATHER SERVICE CLEVELAND, OH
1200 AM EDT MON JUN 26 2017

NOTE: "FAIR" INDICATES FEW OR NO CLOUDS BELOW 12,000 FEET WITH NO
SIGNIFICANT WEATHER AND/OR OBSTRUCTIONS TO VISIBILITY.

OHZ001>008-015>018-024>027-034-035-043-044-260500-
   NORTHWEST OHIO

CITY           SKY/WX    TMP DP  RH WIND       PRES   REMARKS
DEFIANCE       CLOUDY    61  50  67 CALM      30.08S
FINDLAY        PTCLDY    60  48  64 SW6       30.07F
TOLEDO EXPRESS MOCLDY    55  48  77 CALM      30.06F
TOLEDO EXEC    CLEAR     62  48  60 W3        30.07S
LIMA           CLOUDY    62  48  60 SW3       30.09F
$$

OHZ009>014-019>023-028>033-038-089-260500-
   NORTHEAST OHIO

CITY           SKY/WX    TMP DP  RH WIND       PRES   REMARKS
CLE-HOPKINS    PTCLDY    62  47  57 SW7       30.08S
CLE-LAKEFRONT  RAIN      63  50  62 W8G26     30.04S
CUY CO. ARPT   NOT AVBL
LORAIN-ELYRIA  PTCLDY    58  45  62 W8        30.07S
ASHTABULA      CLEAR     58  51  78 CALM      30.06S
AKRON-CANTON   PTCLDY    59  45  59 SW6       30.09S
WOOSTER        CLOUDY    60  48  64 W6        30.09F
MANSFIELD      CLOUDY    59  49  69 SW3       30.09F
YOUNGSTOWN     PTCLDY    57  47  69 SW6       30.07S
$$

OHZ042-051>053-060>062-070>072-077>081-260500-
  SOUTHWEST OHIO

CITY           SKY/WX    TMP DP  RH WIND       PRES   REMARKS
CINC-COVINGTON PTCLDY    62  49  62 CALM      30.13S
CINC-LUNKEN    PTCLDY    59  54  83 CALM      30.14R
HAMILTON       PTCLDY    56  54  93 CALM      30.13S
DAYTON         PTCLDY    61  48  62 SW5       30.13S
WRIGHT-PAT AFB PTCLDY    58  53  83 CALM      30.12S
DAYTON GENERAL PTCLDY    63  50  62 CALM      30.12S
WILMINGTON     CLEAR     60  51  72 N3        30.13S
$$

OHZ036-037-039>041-045>050-054>059-063>069-073>076-082>088-260500-
  CENTRAL AND SOUTHEAST OHIO

CITY           SKY/WX    TMP DP  RH WIND       PRES   REMARKS
COLUMBUS       PTCLDY    64  48  56 W5        30.11S
OSU AIRPORT    PTCLDY    59  50  72 CALM      30.11F
BOLTON FIELD   NOT AVBL
RICKENBACK AFB MOCLDY    62  49  63 CALM      30.11S
NEWARK         CLEAR     55  51  86 CALM      30.11S
MARION         CLEAR     60  45  57 SW6       30.10F
LANCASTER      PTCLDY    55  52  89 SE3       30.12S
ZANESVILLE     CLEAR     56  49  77 CALM      30.12R
NEW PHILLY     NOT AVBL
$$




USA.gov is the U.S. government's official web portal to all federal, state and local government web resources and services.